Regional Weather Roundup
Issued by NWS Newport/Morehead, NC

Current Version | Previous Version | Graphics & Text | Print | Product List | Glossary Off
Versions: 1 2 3 4 5 6 7 8 9 10 11 12 13 14 15 16 17 18 19 20 21 22 23 24 25 26 27 28 29 30 31 32 33 34 35 36 37 38 39 40 41 42 43 44 45 46 47 48 49 50

000
ASUS42 KMHX 290225
RWRMHX
WEATHER ROUNDUP FOR EASTERN NORTH CAROLINA
NATIONAL WEATHER SERVICE NEWPORT/MOREHEAD CITY NC
1000 PM EDT THU MAY 28 2015

NOTE: "FAIR" INDICATES FEW OR NO CLOUDS BELOW 12,000 FEET
WITH NO SIGNIFICANT WEATHER AND/OR OBSTRUCTIONS TO VISIBILITY

NCZ015>017-031-032-045>047-102-103-290300-
NORTH COAST

CITY           SKY/WX    TMP DP  RH WIND       PRES   REMARKS
EDENTON        CLEAR     73  64  73 S9        30.23R
ELIZABETH CITY CLEAR     72  62  71 S7        30.23R
KITTY HAWK     MOCLDY    72  61  67 SE6       30.23R
MANTEO         MOCLDY    71  62  72 S5        30.24R

$$

NCZ045>047-081-094-103-104-290300-
CENTRAL COAST

CITY           SKY/WX    TMP DP  RH WIND       PRES   REMARKS
FRISCO         PTCLDY    74  60  61 SE8       30.23R
SWANQUARTER      N/A     70 N/A N/A SE6       30.21S

$$

NCZ095-097-098-100-101-290300-
SOUTHERN COAST

CITY           SKY/WX    TMP DP  RH WIND       PRES   REMARKS
BEAUFORT       PTCLDY    70  61  73 CALM      30.24R
CEDAR ISLAND     N/A     72 N/A N/A SE1       30.27S
JACKSONVILLE   CLEAR     68  63  84 CALM      30.23R
PINEY ISLAND   CLEAR    N/A N/A N/A S3        30.24R
WILMINGTON     CLEAR     71  62  73 CALM      30.23R


$$

NCZ011>013-027>030-043-044-078>080-089-090>093-098-290300-
COASTAL PLAIN

CITY           SKY/WX    TMP DP  RH WIND       PRES   REMARKS
AHOSKIE        CLEAR     71  66  84 S5        30.22R
CLINTON        CLEAR     74  66  76 CALM      30.22R
ELIZABETHTOWN  PTCLDY    72  64  77 CALM      30.22R
GOLDSBORO      CLEAR     75  65  71 CALM      30.20R
GREENVILLE     CLEAR     77  68  73 S7        30.23R
HAVELOCK       CLEAR     69  61  75 CALM      30.24R
KENANSVILLE    CLEAR     71  63  75 CALM      30.24R
KINSTON        CLEAR     73  63  68 S7        30.23R
NEW BERN       CLEAR     70  61  73 CALM      30.24R
RICHLANDS      CLEAR     66  59  77 CALM      30.24R
ROCKY MOUNT    PTCLDY    75  68  78 S3        30.21R
WASHINGTON     CLEAR     73  62  68 S8        30.24R
WHITEVILLE     CLEAR     70  63  79 S3        30.21S

$$

AMZ130-135-150-152-154-156-158-170-250-252-270-ANZ085-086-088-633-658-670-290300-
MARINE OBSERVATIONS

STATION/POSITION TIME  TEMP    WIND        PRES    WAVE   SWELL
                       AIR SEA DIR/SP/G            HT/PER HT/PER
                 (UTC) (F)     (DEG/KT/KT) (MB)    (FT/S) (FT/S)
CHESAPEAKE LIGHT 0200   68     170/ 22/ 23 1023.6
64 E VA BEACH    0150   67 65  140/  6/  6 1023.7    4/ 8   3/ 8
DUCK             0200   67 57  150/ 11/ 12 1022.9
2 E DUCK         0111      62                N/A     2/ 8
OREGON INLET     0200   72 78  140/  3/  4 1024.2
13E OREGON INLT  0200      74                N/A     3/ 8   2/11
HATTERAS CG      0200   75 77  140/  5/  7 1023.6
DIAMOND BUOY     0150   75 78  120/ 10/ 12 1023.7    4/ 8   3/ 8
CAPE LOOKOUT     0200   74     130/  6/  7 1023.5
BEAUFORT LAB     0200   73 76  140/  4/  4 1023.1
27 SE WRIGHTSVLE 0200      76  150/  6/  8   N/A
5 SE WRIGHTSVLE  0108   76 78  150/  8/ 12 1022.8
225 S CAPE HAT   0150   74 74   80/ 14/ 16 1022.3    6/ 9   5/ 9
41 SE CHARLESTON 0150   77 78   90/ 10/ 12 1022.3    3/ 8   3/ 8

$$


USA.gov is the U.S. government's official web portal to all federal, state and local government web resources and services.